DW0708 Weather Reports


time (UTC)temp
C
wind
direction
speed
KPH
gust
KPH
rain 1hr
cm
rain 24hr
cm
rain mn
cm
humidity
%
barometer
mb
20260506110514 23 0 0.0 8.0 0.00 0.00 0.00 90 1009.3
20260506110033 23 0 0.0 8.0 0.00 0.00 0.00 90 1009.1
20260506105531 23 0 0.0 4.8 0.00 0.00 0.00 90 1009.0
20260506105010 23 0 0.0 4.8 0.00 0.00 0.00 90 1008.8
20260506104526 23 0 0.0 4.8 0.00 0.00 0.00 89 1008.8
20260506104011 23 0 0.0 9.7 0.00 0.00 0.00 89 1008.8
20260506103514 23 160 1.6 9.7 0.00 0.00 0.00 90 1008.7
20260506103033 23 0 1.6 6.4 0.00 0.00 0.00 90 1008.7
20260506102513 23 0 1.6 8.0 0.00 0.00 0.00 90 1008.7
20260506102013 23 142 0.0 8.0 0.00 0.00 0.00 90 1008.8
20260506101530 23 127 1.6 8.0 0.00 0.00 0.00 90 1008.7
20260506101011 23 98 1.6 8.0 0.00 0.00 0.00 90 1008.8
20260506100512 23 0 0.0 14.5 0.00 0.00 0.00 90 1008.8
20260506100029 23 176 3.2 14.5 0.00 0.00 0.00 90 1008.8
20260506095510 23 117 1.6 11.3 0.00 0.00 0.00 90 1008.6
20260506095010 23 0 1.6 12.9 0.00 0.00 0.00 90 1008.6
20260506094529 23 177 0.0 12.9 0.00 0.00 0.00 90 1008.5
20260506094009 23 137 3.2 11.3 0.00 0.00 0.00 90 1008.5
20260506093515 23 69 1.6 11.3 0.00 0.00 0.00 90 1008.4
20260506093028 23 151 0.0 6.4 0.00 0.00 0.00 90 1008.4
20260506092516 23 127 1.6 6.4 0.00 0.00 0.00 90 1008.4
20260506092011 23 169 1.6 11.3 0.00 0.00 0.00 90 1008.3
20260506091526 23 177 3.2 11.3 0.00 0.00 0.00 90 1008.3
20260506091010 23 0 3.2 11.3 0.00 0.00 0.00 90 1008.4
20260506090511 23 0 1.6 9.7 0.00 0.00 0.00 90 1008.3
20260506090029 23 119 0.0 12.9 0.00 0.00 0.00 90 1008.3
20260506085511 23 0 3.2 12.9 0.00 0.00 0.00 90 1008.3
20260506085012 23 185 1.6 14.5 0.00 0.00 0.00 90 1008.3
20260506084527 23 132 1.6 14.5 0.00 0.00 0.00 89 1008.2
20260506084011 23 141 0.0 14.5 0.00 0.00 0.00 89 1008.3
20260506083510 23 136 1.6 14.5 0.00 0.00 0.00 89 1008.3
20260506083027 24 177 0.0 8.0 0.00 0.00 0.00 89 1008.3
20260506082509 24 0 1.6 16.1 0.00 0.00 0.00 89 1008.4
20260506082012 24 0 0.0 16.1 0.00 0.00 0.00 89 1008.3
20260506081528 24 141 1.6 9.7 0.00 0.00 0.00 89 1008.5
20260506081013 24 187 1.6 9.7 0.00 0.00 0.00 89 1008.5
20260506080513 24 170 1.6 8.0 0.00 0.00 0.00 89 1008.6
20260506073513 24 0 0.0 11.3 0.00 0.00 0.00 88 1009.0
20260506073029 24 162 1.6 12.9 0.00 0.00 0.00 88 1008.9
20260506072512 24 0 1.6 12.9 0.00 0.00 0.00 88 1009.0
20260506072013 24 138 1.6 6.4 0.00 0.00 0.00 88 1009.1
20260506071528 24 0 0.0 9.7 0.00 0.00 0.00 88 1009.3
20260506071014 24 0 1.6 9.7 0.00 0.00 0.00 88 1009.3
20260506070515 24 0 1.6 12.9 0.00 0.00 0.00 88 1009.3
20260506062512 24 0 0.0 8.0 0.00 0.00 0.00 87 1009.5
20260506062012 24 0 1.6 8.0 0.00 0.00 0.00 87 1009.5
20260506061528 24 0 0.0 9.7 0.00 0.00 0.00 87 1009.5
20260506061013 24 0 1.6 9.7 0.00 0.00 0.00 87 1009.5
20260506060512 24 0 0.0 8.0 0.00 0.00 0.00 87 1009.5
20260506051011 25 184 1.6 19.3 0.00 0.00 0.00 85 1009.2
20260506050514 25 0 3.2 19.3 0.00 0.00 0.00 85 1009.2
20260506045014 25 0 0.0 9.7 0.00 0.00 0.00 85 1009.4
20260506044537 25 0 3.2 12.9 0.00 0.00 0.00 85 1009.3
20260506044012 25 0 1.6 12.9 0.00 0.00 0.00 85 1009.3
20260506043512 25 164 1.6 12.9 0.00 0.00 0.00 85 1009.3
20260506043027 25 160 1.6 9.7 0.00 0.00 0.00 84 1009.3
20260506042517 25 156 1.6 11.3 0.00 0.00 0.00 84 1009.3
20260506042038 25 0 1.6 11.3 0.00 0.00 0.00 84 1009.4
20260506041528 25 142 0.0 8.0 0.00 0.00 0.00 84 1009.4
20260506041011 25 198 1.6 8.0 0.00 0.00 0.00 84 1009.4
20260506040515 25 124 0.0 8.0 0.00 0.00 0.00 84 1009.4
20260506040029 25 105 0.0 8.0 0.00 0.00 0.00 84 1009.2
20260506035514 25 0 0.0 17.7 0.00 0.00 0.00 84 1009.1
20260506035011 25 94 3.2 17.7 0.00 0.00 0.00 84 1009.1
20260506034528 25 110 0.0 16.1 0.00 0.00 0.00 84 1009.1
20260506034011 25 0 0.0 11.3 0.00 0.00 0.00 83 1009.1
20260506033509 25 0 0.0 11.3 0.00 0.00 0.00 83 1009.1
20260506033033 25 142 1.6 14.5 0.00 0.00 0.00 83 1009.0
20260506032508 25 248 1.6 14.5 0.00 0.00 0.00 83 1008.9
20260506032011 25 105 0.0 8.0 0.00 0.00 0.00 83 1008.8
20260506031532 25 0 0.0 11.3 0.00 0.00 0.00 83 1008.9
20260506031009 25 0 3.2 11.3 0.00 0.00 0.00 83 1008.8
20260506030511 25 236 0.0 9.7 0.00 0.00 0.00 83 1008.8
20260506030046 25 0 1.6 9.7 0.00 0.00 0.00 83 1008.7
20260506025511 25 168 1.6 9.7 0.00 0.00 0.00 82 1008.7
20260506025012 25 293 1.6 11.3 0.00 0.00 0.00 82 1008.6
20260506024531 25 155 1.6 11.3 0.00 0.00 0.00 82 1008.5
20260506024011 25 0 3.2 11.3 0.00 0.00 0.00 82 1008.5
20260506023513 25 0 0.0 11.3 0.00 0.00 0.00 82 1008.3
20260506023027 25 0 1.6 11.3 0.00 0.00 0.00 82 1008.2
20260506022510 25 0 0.0 11.3 0.00 0.00 0.00 82 1008.2
20260506022010 25 160 1.6 12.9 0.00 0.00 0.00 82 1008.0
20260506021528 25 200 1.6 12.9 0.00 0.00 0.00 81 1008.0
20260506021012 25 224 1.6 6.4 0.00 0.00 0.00 81 1007.9
20260506020515 25 0 1.6 11.3 0.00 0.00 0.00 81 1007.9
20260506020028 25 0 0.0 14.5 0.00 0.00 0.00 81 1007.8
20260506015512 26 160 1.6 14.5 0.00 0.00 0.00 81 1007.8
20260506015010 26 0 1.6 8.0 0.00 0.00 0.00 81 1007.6
20260506014528 26 0 0.0 6.4 0.00 0.00 0.00 81 1007.6
20260506014008 26 0 0.0 9.7 0.00 0.00 0.00 80 1007.4
20260506013511 26 0 0.0 9.7 0.00 0.00 0.00 80 1007.4
20260506013031 26 0 1.6 9.7 0.00 0.00 0.00 80 1007.3
20260506012509 26 216 1.6 8.0 0.00 0.00 0.00 80 1007.4
20260506012013 26 76 0.0 8.0 0.00 0.00 0.00 79 1007.2
20260506011536 26 0 0.0 6.4 0.00 0.00 0.00 79 1007.1
20260506011015 26 0 0.0 11.3 0.00 0.00 0.00 79 1007.1
20260506010511 26 0 1.6 11.3 0.00 0.00 0.00 78 1007.0
20260506010026 26 0 1.6 11.3 0.00 0.00 0.00 78 1007.1
20260506005508 26 0 0.0 8.0 0.00 0.00 0.00 78 1007.0
20260506005009 26 0 0.0 8.0 0.00 0.00 0.00 78 1007.0
20260506004543 26 162 0.0 9.7 0.00 0.00 0.00 78 1007.0
20260506004009 26 223 0.0 9.7 0.00 0.00 0.00 77 1007.0
20260506003511 26 0 3.2 12.9 0.00 0.00 0.00 77 1006.8
20260506003033 26 129 1.6 12.9 0.00 0.00 0.00 77 1006.9
20260506002511 27 206 1.6 14.5 0.00 0.00 0.00 77 1006.8
20260506002017 27 189 3.2 14.5 0.00 0.00 0.00 77 1006.9
20260506001531 27 0 0.0 9.7 0.00 0.00 0.00 77 1006.9
20260506001010 27 0 1.6 12.9 0.00 0.00 0.00 76 1007.0
20260506000513 27 0 1.6 12.9 0.00 0.00 0.00 76 1006.9
20260506000026 27 160 1.6 12.9 0.00 0.00 0.00 76 1006.7
20260505235510 27 0 3.2 12.9 0.00 0.00 0.00 76 1006.7
20260505235008 27 197 1.6 24.1 0.00 0.00 0.00 76 1006.8
20260505234526 27 198 4.8 24.1 0.00 0.00 0.00 75 1006.7
20260505234009 27 231 1.6 8.0 0.00 0.00 0.00 76 1006.8
20260505233512 27 189 1.6 17.7 0.00 0.00 0.00 76 1006.6
20260505233025 27 146 3.2 17.7 0.00 0.00 0.00 76 1006.6
20260505232509 27 175 4.8 17.7 0.00 0.00 0.00 76 1006.6
20260505232009 27 136 3.2 12.9 0.00 0.00 0.00 75 1006.7
20260505231529 27 204 0.0 9.7 0.00 0.00 0.00 75 1006.6
20260505231013 27 122 3.2 12.9 0.00 0.00 0.00 75 1006.6
20260505230510 27 159 1.6 20.9 0.00 0.00 0.00 75 1006.8
20260505230039 28 0 1.6 20.9 0.00 0.00 0.00 75 1006.9
20260505225511 28 160 3.2 20.9 0.00 0.00 0.00 74 1006.9
20260505225015 28 198 6.4 14.5 0.00 0.00 0.00 74 1006.8
20260505224533 28 0 4.8 19.3 0.00 0.00 0.00 74 1006.7
20260505224008 28 200 3.2 19.3 0.00 0.00 0.00 73 1006.8
20260505223512 28 0 3.2 19.3 0.00 0.00 0.00 73 1006.7
20260505223027 28 248 0.0 17.7 0.00 0.00 0.00 73 1006.6
20260505222508 28 286 6.4 17.7 0.00 0.00 0.00 73 1006.7
20260505222009 28 171 0.0 17.7 0.00 0.00 0.00 74 1006.9
20260505221526 28 0 1.6 20.9 0.00 0.00 0.00 73 1006.8
20260505221012 28 171 4.8 20.9 0.00 0.00 0.00 73 1006.8
20260505220512 28 189 3.2 20.9 0.00 0.00 0.00 74 1006.8
20260505220032 28 0 1.6 17.7 0.00 0.00 0.00 74 1006.9
20260505215513 28 153 3.2 17.7 0.00 0.00 0.00 73 1007.0
20260505215012 28 155 3.2 16.1 0.00 0.00 0.00 73 1007.0
20260505214534 28 201 4.8 17.7 0.00 0.00 0.00 73 1007.1
20260505214013 28 198 1.6 17.7 0.00 0.00 0.00 73 1007.3
20260505213517 28 0 3.2 12.9 0.00 0.00 0.00 73 1007.4
20260505213033 28 91 3.2 12.9 0.00 0.00 0.00 73 1007.5
20260505212513 28 138 1.6 16.1 0.00 0.00 0.00 73 1007.5
20260505212012 28 256 3.2 16.1 0.00 0.00 0.00 72 1007.6
20260505211528 28 60 3.2 16.1 0.00 0.00 0.00 74 1007.6
20260505211009 28 0 0.0 16.1 0.00 0.00 0.00 73 1007.6
20260505210515 28 174 3.2 22.5 0.00 0.00 0.00 72 1007.7
20260505210029 28 0 1.6 22.5 0.00 0.00 0.00 72 1007.8
20260505205511 29 189 4.8 22.5 0.00 0.00 0.00 73 1007.8
20260505205009 29 0 4.8 17.7 0.00 0.00 0.00 72 1007.9
20260505204533 29 195 4.8 17.7 0.00 0.00 0.00 71 1007.9
20260505204009 29 0 1.6 16.1 0.00 0.00 0.00 73 1007.9
20260505203510 28 242 8.0 19.3 0.00 0.00 0.00 71 1008.1
20260505203034 28 0 4.8 19.3 0.00 0.00 0.00 72 1008.2
20260505202514 28 225 4.8 19.3 0.00 0.00 0.00 71 1008.1
20260505202012 28 94 6.4 19.3 0.00 0.00 0.00 71 1008.2
20260505201533 28 295 6.4 19.3 0.00 0.00 0.00 73 1008.2
20260505201013 28 212 4.8 17.7 0.00 0.00 0.00 73 1008.3
20260505200511 28 209 3.2 17.7 0.00 0.00 0.00 72 1008.5
20260505200032 28 152 4.8 22.5 0.00 0.00 0.00 72 1008.3
20260505195516 28 124 4.8 22.5 0.00 0.00 0.00 72 1008.6
20260505195012 28 144 6.4 30.6 0.00 0.00 0.00 72 1008.6
20260505194528 28 227 4.8 30.6 0.00 0.00 0.00 73 1008.8
20260505194012 28 195 6.4 30.6 0.00 0.00 0.00 72 1008.8
20260505193511 28 134 4.8 24.1 0.00 0.00 0.00 74 1008.8
20260505193028 28 124 4.8 30.6 0.00 0.00 0.00 74 1008.9
20260505192511 28 149 3.2 30.6 0.00 0.00 0.00 75 1008.8
20260505192011 28 151 8.0 30.6 0.00 0.00 0.00 75 1008.7
20260505191529 28 179 0.0 16.1 0.00 0.00 0.00 75 1008.9
20260505191013 27 0 3.2 16.1 0.00 0.00 0.00 75 1008.9
20260505190512 27 338 1.6 19.3 0.00 0.00 0.00 76 1009.0
20260505190039 27 202 4.8 19.3 0.00 0.00 0.00 76 1008.9
20260505185516 27 0 4.8 20.9 0.00 0.00 0.00 77 1008.8
20260505185015 27 184 3.2 20.9 0.00 0.00 0.00 79 1009.0
20260505184531 27 194 1.6 16.1 0.00 0.00 0.00 79 1009.1
20260505184013 27 0 4.8 17.7 0.00 0.00 0.00 79 1009.1
20260505183510 26 264 4.8 20.9 0.00 0.00 0.00 80 1009.2
20260505183030 26 148 4.8 20.9 0.00 0.00 0.00 81 1009.3
20260505182510 26 0 0.0 19.3 0.00 0.00 0.00 81 1009.2
20260505182013 26 138 4.8 19.3 0.00 0.00 0.00 81 1009.2
20260505181532 26 221 3.2 9.7 0.00 0.00 0.00 81 1009.3
20260505181011 26 248 1.6 17.7 0.00 0.00 0.00 81 1009.4
20260505180513 26 0 4.8 17.7 0.00 0.00 0.00 82 1009.4
20260505180037 26 0 1.6 17.7 0.00 0.00 0.00 81 1009.4
20260505175514 26 259 4.8 17.7 0.00 0.00 0.00 81 1009.5
20260505175013 26 302 3.2 14.5 0.00 0.00 0.00 82 1009.5
20260505174529 26 258 3.2 12.9 0.00 0.00 0.00 82 1009.5
20260505174013 26 232 1.6 17.7 0.00 0.00 0.00 82 1009.5
20260505173509 26 135 3.2 17.7 0.00 0.00 0.00 81 1009.6
20260505173029 26 169 1.6 14.5 0.00 0.00 0.00 82 1009.6
20260505172511 26 191 3.2 14.5 0.00 0.00 0.00 82 1009.6
20260505172011 26 186 1.6 19.3 0.00 0.00 0.00 82 1009.6
20260505171528 26 0 3.2 19.3 0.00 0.00 0.00 82 1009.7
20260505171013 26 150 3.2 19.3 0.00 0.00 0.00 83 1009.6
20260505170514 25 210 3.2 16.1 0.00 0.00 0.00 83 1009.7
20260505170027 25 0 1.6 16.1 0.00 0.00 0.00 84 1009.7
20260505165512 25 309 1.6 12.9 0.00 0.00 0.00 84 1009.8
20260505165012 25 195 1.6 12.9 0.00 0.00 0.00 84 1009.8
20260505164536 25 0 1.6 11.3 0.00 0.00 0.00 84 1009.9
20260505164011 25 0 0.0 12.9 0.00 0.00 0.00 84 1009.9
20260505163512 25 0 3.2 12.9 0.00 0.00 0.00 84 1009.9
20260505163034 25 174 3.2 11.3 0.00 0.00 0.00 84 1010.0
20260505162512 25 210 4.8 11.3 0.00 0.00 0.00 84 1009.9
20260505162014 25 293 3.2 11.3 0.00 0.00 0.00 84 1009.9
20260505161528 25 206 1.6 9.7 0.00 0.00 0.00 85 1009.8
20260505161011 25 0 0.0 16.1 0.00 0.00 0.00 85 1009.8
20260505160512 24 167 3.2 16.1 0.00 0.00 0.00 85 1009.7
20260505153034 24 240 3.2 20.9 0.00 0.00 0.00 84 1009.5
20260505152512 24 0 1.6 12.9 0.00 0.00 0.00 84 1009.5
20260505152013 24 170 3.2 17.7 0.00 0.00 0.00 84 1009.5
20260505151530 24 0 4.8 29.0 0.00 0.00 0.00 84 1009.6
20260505151013 24 236 8.0 29.0 0.00 0.00 0.00 84 1009.4
20260505150511 24 138 6.4 22.5 0.00 0.00 0.00 84 1009.5
20260505140510 23 149 4.8 14.5 0.00 0.00 0.00 89 1009.3
20260505125011 21 122 1.6 9.7 0.00 0.00 0.00 91 1009.3
20260505124529 21 217 1.6 9.7 0.00 0.00 0.00 91 1009.0
20260505124013 21 174 1.6 9.7 0.00 0.00 0.00 91 1008.8
20260505123509 21 85 0.0 8.0 0.00 0.00 0.00 91 1008.7
20260505123035 21 107 1.6 8.0 0.00 0.00 0.00 91 1008.8
20260505122510 21 133 1.6 6.4 0.00 0.00 0.00 91 1009.1
20260505122014 21 129 1.6 4.8 0.00 0.00 0.00 91 1009.1
20260505121532 21 0 0.0 4.8 0.00 0.00 0.00 91 1009.1
20260505121013 21 0 0.0 4.8 0.00 0.00 0.00 90 1009.2
20260505120512 21 147 0.0 8.0 0.00 0.00 0.00 90 1008.9
20260505120039 21 0 0.0 11.3 0.00 0.00 0.00 90 1008.9
20260505115512 21 103 1.6 11.3 0.00 0.00 0.00 90 1008.9
20260505115009 21 0 0.0 8.0 0.00 0.00 0.00 90 1008.8
20260505114527 21 185 1.6 8.0 0.00 0.00 0.00 90 1008.6
20260505114012 21 148 0.0 4.8 0.00 0.00 0.00 90 1008.5
20260505113511 21 0 0.0 8.0 0.00 0.00 0.00 90 1008.7
20260505113029 21 177 1.6 8.0 0.00 0.00 0.00 90 1009.0
20260505112511 21 0 0.0 8.0 0.00 0.00 0.00 90 1008.9
20260505112011 21 0 1.6 11.3 0.00 0.00 0.00 90 1008.9
20260505111532 21 139 0.0 11.3 0.00 0.00 0.00 90 1009.0
20260505111011 21 224 1.6 11.3 0.00 0.00 0.00 90 1008.8